Lewistown, MT

2:10 AM MDT on May 23, 2017 (GMT -0600)
Lewistown Municipal

Weather History for KLWT - November, 2010

Change the Weather History Date:

Tuesday, November 23, 2010

  Actual Average Record
Temperature  
Mean Temperature -11 °F 29 °F  
Max Temperature -7 °F 40 °F 65 °F (1944)
Min Temperature -15 °F 18 °F -30 °F (1985)
Degree Days  
Heating Degree Days 76 36  
Month to date heating degree days 832 726  
Since 1 July heating degree days 1885 1864  
Cooling Degree Days 0 0  
Month to date cooling degree days 0 0  
Year to date cooling degree days 125 210  
Moisture  
Dew Point -14 °F    
Average Humidity 85    
Maximum Humidity 91    
Minimum Humidity 78    
Precipitation  
Precipitation 0.03 in 0.03 in 0.31 in (1959)
Month to date precipitation 1.80 0.56  
Year to date precipitation 21.27 16.04  
Snow  
Snow 0.00 in - - ()
Snow Depth 5.00 in    
Sea Level Pressure  
Sea Level Pressure 29.86 in    
Wind  
Wind Speed 9 mph (WNW)    
Max Wind Speed 17 mph    
Max Gust Speed 21 mph    
Visibility 3 miles    
Events Fog , Snow    
T = Trace of Precipitation, MM = Missing Value Source: NWS Daily Summary

Daily Weather History Graph

Daily Weather History Graph

Search for Another Location

Airport or City:

Trip Planner

Search our weather history database for the weather conditions in past years. The results will help you decide how hot, cold, wet, or windy it might be!

Date:

Astronomy

Nov. 23, 2010 Rise Set
Actual Time 7:32 AM MST 4:35 PM MST
Civil Twilight 6:58 AM MST 5:09 PM MST
Nautical Twilight 6:21 AM MST 5:47 PM MST
Astronomical Twilight 5:44 AM MST 6:23 PM MST
Moon 6:13 PM MST 9:40 AM MST
Length of Visible Light 10h 10m
Length of Day
9h 02m
Waning Gibbous, 95% of the Moon is Illuminated
Nov 23
Waning Gibbous
Nov 28
Last Quarter
Dec 5
New
Dec 13
First Quarter
Dec 21
Full

Hourly Weather History & Observations

Time (MST) Temp. Windchill Dew Point Humidity Pressure Visibility Wind Dir Wind Speed Gust Speed Precip Events Conditions
1:38 AM -11.2 °F -20.6 °F -16.6 °F 77% 29.83 in 10.0 mi SSE 3.5 mph - N/A   Mostly Cloudy
1:54 AM -11.0 °F - -16.1 °F 78% 30.14 in 10.0 mi Calm Calm - N/A   Overcast
2:54 AM -9.9 °F - -14.1 °F 82% 30.13 in 4.0 mi Calm Calm - N/A   Overcast
3:35 AM -9.4 °F -18.6 °F -13.0 °F 84% 29.81 in 5.0 mi SSE 3.5 mph - 0.00 in   Overcast
3:54 AM -8.0 °F - -11.9 °F 83% 30.10 in 5.0 mi Calm Calm - 0.00 in   Overcast
4:17 AM -7.6 °F - -11.2 °F 84% 29.79 in 9.0 mi Calm Calm - N/A   Overcast
4:34 AM -7.6 °F - -11.2 °F 84% 29.79 in 7.0 mi Calm Calm - N/A   Overcast
4:54 AM -7.1 °F -15.9 °F -11.0 °F 83% 30.08 in 5.0 mi NE 3.5 mph - 0.00 in Snow Light Snow
5:07 AM -7.6 °F -16.5 °F -11.2 °F 84% 29.77 in 2.5 mi NE 3.5 mph - 0.00 in Snow Light Snow
5:39 AM -7.6 °F -16.5 °F -11.2 °F 84% 29.77 in 1.8 mi North 3.5 mph - 0.00 in Snow Light Snow
5:54 AM -7.1 °F - -11.0 °F 83% 30.05 in 1.2 mi Calm Calm - 0.01 in Snow Light Snow
6:06 AM -7.6 °F - -11.2 °F 84% 29.77 in 1.2 mi Calm Calm - 0.00 in Snow Light Snow
6:23 AM -7.6 °F -16.5 °F -11.2 °F 84% 29.77 in 2.5 mi WNW 3.5 mph - 0.00 in Snow Light Snow
6:31 AM -7.6 °F -16.5 °F -11.2 °F 84% 29.76 in 4.0 mi WNW 3.5 mph - 0.00 in Snow Light Snow
6:45 AM -7.6 °F -16.5 °F -11.2 °F 84% 29.75 in 2.5 mi WNW 3.5 mph - 0.00 in Snow Light Snow
6:54 AM -7.1 °F -18.1 °F -11.0 °F 83% 30.05 in 2.5 mi WNW 4.6 mph - 0.00 in Snow Light Snow
7:10 AM -7.6 °F -20.6 °F -11.2 °F 84% 29.75 in 2.0 mi WNW 5.8 mph - 0.00 in Snow Light Snow
7:20 AM -7.6 °F -18.8 °F -11.2 °F 84% 29.75 in 1.5 mi WNW 4.6 mph - 0.00 in Snow Light Snow
7:40 AM -7.6 °F -20.6 °F -11.2 °F 84% 29.75 in 2.0 mi WNW 5.8 mph - 0.00 in Snow Light Snow
8:08 AM -7.6 °F -20.6 °F -11.2 °F 84% 29.73 in 1.8 mi NW 5.8 mph - 0.00 in Snow Light Snow
8:30 AM -7.6 °F -24.6 °F -11.2 °F 84% 29.75 in 1.2 mi WNW 9.2 mph - 0.00 in Snow Light Snow
8:54 AM -8.0 °F -25.0 °F -11.9 °F 83% 30.06 in 1.8 mi WNW 9.2 mph - 0.00 in Snow Light Snow
9:54 AM -8.0 °F -26.1 °F -11.9 °F 83% 30.06 in 2.5 mi WNW 10.4 mph - 0.00 in Snow Light Snow
10:02 AM -7.6 °F -24.6 °F -11.2 °F 84% 29.75 in 4.0 mi WNW 9.2 mph - 0.00 in Snow Light Snow
10:25 AM -7.6 °F -25.7 °F -13.0 °F 77% 29.77 in 2.0 mi WNW 10.4 mph - 0.00 in Snow Light Snow
10:29 AM -7.6 °F -26.6 °F -13.0 °F 77% 29.77 in 1.8 mi WNW 11.5 mph - 0.00 in Snow Light Snow
10:50 AM -9.4 °F -30.6 °F -13.0 °F 84% 29.76 in 0.8 mi WNW 13.8 mph - 0.00 in Snow Light Snow
10:54 AM -9.0 °F -30.2 °F -13.0 °F 83% 30.07 in 0.5 mi WNW 13.8 mph - 0.00 in Fog , Snow Snow
11:15 AM -9.4 °F -27.9 °F -13.0 °F 84% 29.75 in 1.5 mi WNW 10.4 mph - 0.00 in Snow Light Snow
11:25 AM -9.4 °F -30.6 °F -14.8 °F 77% 29.75 in 0.8 mi WNW 13.8 mph - 0.00 in Snow Light Snow
11:42 AM -9.4 °F -28.9 °F -13.0 °F 84% 29.75 in 0.5 mi WNW 11.5 mph - 0.00 in Fog , Snow Snow
11:54 AM -9.0 °F -29.3 °F -14.1 °F 79% 30.06 in 0.8 mi WNW 12.7 mph - 0.01 in Snow Light Snow
12:02 PM -9.4 °F -28.9 °F -14.8 °F 77% 29.73 in 1.0 mi WNW 11.5 mph - 0.00 in Snow Light Snow
12:17 PM -9.4 °F -28.9 °F -14.8 °F 77% 29.73 in 1.5 mi WNW 11.5 mph - 0.00 in Snow Light Snow
12:54 PM -9.0 °F -28.4 °F -14.1 °F 79% 30.04 in 2.0 mi WNW 11.5 mph - 0.00 in Snow Light Snow
1:04 PM -9.4 °F -28.9 °F -14.8 °F 77% 29.72 in 1.0 mi WNW 11.5 mph - 0.00 in Snow Light Snow
1:11 PM -9.4 °F -25.6 °F -14.8 °F 77% 29.70 in 0.5 mi WNW 8.1 mph - 0.00 in Snow Snow
1:24 PM -9.4 °F -30.6 °F -14.8 °F 77% 29.71 in 1.5 mi WNW 13.8 mph - 0.00 in Snow Light Snow
1:29 PM -9.4 °F -29.8 °F -14.8 °F 77% 29.71 in 3.0 mi WNW 12.7 mph - 0.00 in Snow Light Snow
1:42 PM -9.4 °F -31.4 °F -14.8 °F 77% 29.73 in 7.0 mi WNW 15.0 mph - 0.00 in   Mostly Cloudy
1:54 PM -9.9 °F -29.6 °F -15.0 °F 78% 30.05 in 7.0 mi WNW 11.5 mph - 0.00 in   Scattered Clouds
2:54 PM -9.9 °F -31.3 °F -15.0 °F 78% 30.05 in 3.0 mi NW 13.8 mph 20.7 mph 0.00 in Snow Light Snow
2:59 PM -9.4 °F -31.4 °F -14.8 °F 77% 29.73 in 1.8 mi WNW 15.0 mph 20.7 mph 0.00 in Snow Light Snow
3:19 PM -11.2 °F -33.7 °F -16.6 °F 77% 29.72 in 1.2 mi WNW 15.0 mph - 0.00 in Snow Light Snow
3:31 PM -11.2 °F -32.9 °F -16.6 °F 77% 29.74 in 3.0 mi WNW 13.8 mph - 0.00 in Snow Light Snow
3:46 PM -11.2 °F -33.7 °F -16.6 °F 77% 29.74 in 8.0 mi WNW 15.0 mph - 0.00 in   Scattered Clouds
3:54 PM -11.0 °F -30.9 °F -16.1 °F 78% 30.04 in 10.0 mi WNW 11.5 mph - 0.00 in   Partly Cloudy
4:54 PM -11.0 °F -31.8 °F -16.1 °F 78% 30.05 in 10.0 mi WNW 12.7 mph - N/A   Overcast
5:12 PM -11.2 °F -34.4 °F -16.6 °F 77% 29.76 in 2.5 mi WNW 16.1 mph - 0.00 in Snow Light Snow
5:20 PM -11.2 °F -33.7 °F -16.6 °F 77% 29.75 in 1.0 mi WNW 15.0 mph - 0.00 in Snow Light Snow
5:28 PM -11.2 °F -31.1 °F -16.6 °F 77% 29.74 in 1.0 mi WNW 11.5 mph - 0.00 in Snow Light Snow
5:34 PM -11.2 °F -31.1 °F -16.6 °F 77% 29.74 in 0.8 mi WNW 11.5 mph - 0.00 in Snow Light Snow
5:54 PM -11.9 °F -33.0 °F -17.0 °F 78% 30.07 in 1.2 mi WNW 12.7 mph - 0.00 in Snow Light Snow
6:05 PM -11.2 °F -31.1 °F -16.6 °F 77% 29.74 in 1.5 mi WNW 11.5 mph - 0.00 in Snow Light Snow
6:12 PM -11.2 °F -30.1 °F -16.6 °F 77% 29.76 in 1.5 mi WNW 10.4 mph - 0.00 in Snow Light Snow
6:38 PM -11.2 °F -29.0 °F -16.6 °F 77% 29.75 in 1.2 mi WNW 9.2 mph - 0.00 in Snow Light Snow
6:51 PM -11.2 °F -30.1 °F -16.6 °F 77% 29.77 in 0.8 mi West 10.4 mph - 0.00 in Snow Light Snow
6:54 PM -11.9 °F -31.0 °F -17.0 °F 78% 30.10 in 0.8 mi West 10.4 mph - 0.00 in Snow Light Snow
7:10 PM -11.2 °F -27.8 °F -16.6 °F 77% 29.77 in 1.0 mi WNW 8.1 mph - 0.00 in Snow Light Snow
7:54 PM -11.0 °F -27.6 °F -16.1 °F 78% 30.10 in 1.5 mi NW 8.1 mph - 0.00 in Snow Light Snow
8:10 PM -11.2 °F -30.1 °F -16.6 °F 77% 29.78 in 2.0 mi NW 10.4 mph 16.1 mph 0.00 in Snow Light Snow
8:54 PM -11.0 °F -27.6 °F -16.1 °F 78% 30.09 in 2.5 mi WNW 8.1 mph - 0.00 in Snow Light Snow
9:54 PM -11.0 °F -30.9 °F -16.1 °F 78% 30.09 in 2.0 mi West 11.5 mph - 0.00 in Snow Light Snow
10:16 PM -11.2 °F -26.4 °F -16.6 °F 77% 29.77 in 2.5 mi WNW 6.9 mph - 0.00 in Snow Light Snow
10:54 PM -11.0 °F -24.6 °F -16.1 °F 78% 30.07 in 1.8 mi West 5.8 mph - 0.00 in Snow Light Snow
11:17 PM -11.2 °F -23.0 °F -16.6 °F 77% 29.76 in 2.0 mi WNW 4.6 mph - 0.00 in Snow Light Snow
11:39 PM -11.2 °F -20.6 °F -16.6 °F 77% 29.76 in 3.0 mi West 3.5 mph - 0.01 in Snow Light Snow
11:52 PM -13.0 °F -28.6 °F -18.4 °F 77% 29.75 in 4.0 mi West 6.9 mph - 0.01 in Snow Light Snow
11:54 PM -13.0 °F -30.0 °F -18.0 °F 78% 30.07 in 4.0 mi West 8.1 mph - 0.01 in Snow Light Snow